Time,TemperatureF,DewpointF,PressureIn,WindDirection,WindDirectionDegrees,WindSpeedMPH,WindSpeedGustMPH,Humidity,HourlyPrecipIn,Conditions,Clouds,dailyrainin,SoftwareType,DateUTC
2013-09-17 00:02:00,57.0,53.8,30.25,NNW,337,0.0,1.0,89,0.00,,,0.11,meteohub,2013-09-17 04:02:00,
2013-09-17 00:05:00,56.7,53.8,30.25,NNW,336,1.0,3.0,90,0.00,,,0.00,meteohub,2013-09-17 04:05:00,
2013-09-17 00:08:00,56.3,53.8,30.25,NNW,336,0.0,3.0,91,0.00,,,0.00,meteohub,2013-09-17 04:08:00,
2013-09-17 00:12:00,56.1,53.6,30.25,NNW,336,0.0,3.0,91,0.00,,,0.00,meteohub,2013-09-17 04:12:00,
2013-09-17 00:17:00,55.9,53.4,30.26,NW,315,0.0,3.0,91,0.00,,,0.00,meteohub,2013-09-17 04:17:00,
2013-09-17 00:22:00,55.9,53.1,30.26,NW,315,0.0,2.0,90,0.00,,,0.00,meteohub,2013-09-17 04:22:00,
2013-09-17 00:27:00,55.9,52.7,30.27,NW,310,1.0,2.0,89,0.00,,,0.00,meteohub,2013-09-17 04:27:00,
2013-09-17 00:32:00,56.3,52.9,30.27,NW,312,2.0,2.0,88,0.00,,,0.00,meteohub,2013-09-17 04:32:00,
2013-09-17 00:37:00,56.5,52.7,30.27,NNW,341,0.0,2.0,87,0.00,,,0.00,meteohub,2013-09-17 04:37:00,
2013-09-17 00:42:00,56.3,52.5,30.27,NNW,344,0.0,2.0,87,0.00,,,0.00,meteohub,2013-09-17 04:42:00,
2013-09-17 00:47:00,56.3,52.5,30.27,NNW,342,0.0,2.0,87,0.00,,,0.00,meteohub,2013-09-17 04:47:00,
2013-09-17 00:52:00,56.1,52.7,30.27,NNW,342,0.0,2.0,88,0.00,,,0.00,meteohub,2013-09-17 04:52:00,
2013-09-17 00:57:00,55.9,52.7,30.27,NNW,342,0.0,1.0,89,0.00,,,0.00,meteohub,2013-09-17 04:57:00,
2013-09-17 01:02:00,55.6,53.1,30.28,NNW,342,0.0,1.0,91,0.00,,,0.00,meteohub,2013-09-17 05:02:00,
2013-09-17 01:07:00,55.4,52.5,30.28,NNW,342,0.0,0.0,90,0.00,,,0.00,meteohub,2013-09-17 05:07:00,
2013-09-17 01:12:00,55.2,52.0,30.28,NNW,342,0.0,0.0,89,0.00,,,0.00,meteohub,2013-09-17 05:12:00,
2013-09-17 01:17:00,55.2,52.3,30.28,NNW,342,0.0,0.0,90,0.00,,,0.00,meteohub,2013-09-17 05:17:00,
2013-09-17 01:22:00,55.2,52.7,30.28,NNW,342,0.0,0.0,91,0.00,,,0.00,meteohub,2013-09-17 05:22:00,
2013-09-17 01:27:00,55.2,52.7,30.28,NNW,342,0.0,0.0,91,0.00,,,0.00,meteohub,2013-09-17 05:27:00,
2013-09-17 01:33:00,55.0,52.5,30.28,NNW,342,0.0,0.0,91,0.00,,,0.00,meteohub,2013-09-17 05:33:00,
2013-09-17 01:39:00,55.0,52.5,30.29,NNW,342,0.0,0.0,91,0.00,,,0.00,meteohub,2013-09-17 05:39:00,
2013-09-17 01:45:00,54.9,52.0,30.29,NNW,342,0.0,0.0,90,0.00,,,0.00,meteohub,2013-09-17 05:45:00,
2013-09-17 01:51:00,54.9,52.0,30.29,NNW,342,0.0,0.0,90,0.00,,,0.00,meteohub,2013-09-17 05:51:00,
2013-09-17 01:57:00,54.7,52.2,30.29,NNW,342,0.0,0.0,91,0.00,,,0.00,meteohub,2013-09-17 05:57:00,
2013-09-17 02:02:00,54.7,51.8,30.29,NW,312,0.0,0.0,90,0.00,,,0.00,meteohub,2013-09-17 06:02:00,
2013-09-17 02:07:00,54.5,51.6,30.29,NW,316,0.0,1.0,90,0.00,,,0.00,meteohub,2013-09-17 06:07:00,
2013-09-17 02:12:00,54.5,51.6,30.29,NW,316,0.0,1.0,90,0.00,,,0.00,meteohub,2013-09-17 06:12:00,
2013-09-17 02:17:00,54.3,51.8,30.30,NW,316,0.0,1.0,91,0.00,,,0.00,meteohub,2013-09-17 06:17:00,
2013-09-17 02:22:00,54.1,51.6,30.30,NW,316,0.0,1.0,91,0.00,,,0.00,meteohub,2013-09-17 06:22:00,
2013-09-17 02:27:00,54.1,51.6,30.30,NW,316,0.0,1.0,91,0.00,,,0.00,meteohub,2013-09-17 06:27:00,
2013-09-17 02:32:00,54.0,51.4,30.30,NW,316,0.0,1.0,91,0.00,,,0.00,meteohub,2013-09-17 06:32:00,
2013-09-17 02:37:00,54.0,51.4,30.30,NW,316,0.0,1.0,91,0.00,,,0.00,meteohub,2013-09-17 06:37:00,
2013-09-17 02:42:00,53.8,51.3,30.30,NW,316,0.0,0.0,91,0.00,,,0.00,meteohub,2013-09-17 06:42:00,
2013-09-17 02:47:00,53.8,51.4,30.30,NW,316,0.0,1.0,92,0.00,,,0.00,meteohub,2013-09-17 06:47:00,
2013-09-17 02:52:00,53.6,51.3,30.30,NW,306,0.0,1.0,92,0.00,,,0.00,meteohub,2013-09-17 06:52:00,
2013-09-17 02:57:00,53.4,51.1,30.30,NW,306,0.0,1.0,92,0.00,,,0.00,meteohub,2013-09-17 06:57:00,
2013-09-17 03:02:00,53.4,51.1,30.30,North,355,0.0,1.0,92,0.00,,,0.00,meteohub,2013-09-17 07:02:00,
2013-09-17 03:07:00,53.2,50.9,30.30,NNW,348,0.0,1.0,92,0.00,,,0.00,meteohub,2013-09-17 07:07:00,
2013-09-17 03:12:00,53.2,50.7,30.30,NNW,348,0.0,1.0,91,0.00,,,0.00,meteohub,2013-09-17 07:12:00,
2013-09-17 03:17:00,53.1,50.5,30.30,NNW,346,0.0,1.0,91,0.00,,,0.00,meteohub,2013-09-17 07:17:00,
2013-09-17 03:22:00,53.1,50.5,30.30,NNW,345,0.0,1.0,91,0.00,,,0.00,meteohub,2013-09-17 07:22:00,
2013-09-17 03:27:00,52.9,50.4,30.30,NNW,346,0.0,1.0,91,0.00,,,0.00,meteohub,2013-09-17 07:27:00,
2013-09-17 03:32:00,52.7,50.4,30.30,NNW,345,0.0,1.0,92,0.00,,,0.00,meteohub,2013-09-17 07:32:00,
2013-09-17 03:37:00,52.3,50.0,30.30,NNW,346,0.0,0.0,92,0.00,,,0.00,meteohub,2013-09-17 07:37:00,
2013-09-17 03:42:00,52.3,50.0,30.30,NNW,345,0.0,0.0,92,0.00,,,0.00,meteohub,2013-09-17 07:42:00,
2013-09-17 03:47:00,52.2,49.8,30.30,NNW,345,0.0,0.0,92,0.00,,,0.00,meteohub,2013-09-17 07:47:00,
2013-09-17 03:52:00,52.2,49.8,30.30,NNW,342,0.0,0.0,92,0.00,,,0.00,meteohub,2013-09-17 07:52:00,
2013-09-17 03:57:00,52.2,49.8,30.30,NNW,341,0.0,0.0,92,0.00,,,0.00,meteohub,2013-09-17 07:57:00,
2013-09-17 04:02:00,52.0,49.6,30.31,NNW,341,0.0,0.0,92,0.00,,,0.00,meteohub,2013-09-17 08:02:00,
2013-09-17 04:07:00,52.0,49.6,30.31,North,349,0.0,0.0,92,0.00,,,0.00,meteohub,2013-09-17 08:07:00,
2013-09-17 04:13:00,52.0,49.6,30.31,NW,325,0.0,0.0,92,0.00,,,0.00,meteohub,2013-09-17 08:13:00,
2013-09-17 04:19:00,51.6,49.5,30.31,WNW,291,0.0,0.0,92,0.00,,,0.00,meteohub,2013-09-17 08:19:00,
2013-09-17 04:25:00,51.6,49.6,30.32,WNW,291,0.0,0.0,93,0.00,,,0.00,meteohub,2013-09-17 08:25:00,
2013-09-17 04:31:00,51.4,49.3,30.32,WNW,291,0.0,1.0,92,0.00,,,0.00,meteohub,2013-09-17 08:31:00,
2013-09-17 04:37:00,51.3,49.1,30.32,WNW,291,1.0,1.0,92,0.00,,,0.00,meteohub,2013-09-17 08:37:00,
2013-09-17 04:42:00,51.1,48.9,30.32,WNW,291,0.0,1.0,92,0.00,,,0.00,meteohub,2013-09-17 08:42:00,
2013-09-17 04:47:00,50.9,48.9,30.32,WNW,284,0.0,1.0,93,0.00,,,0.00,meteohub,2013-09-17 08:47:00,
2013-09-17 04:52:00,50.7,48.7,30.32,WNW,284,0.0,1.0,93,0.00,,,0.00,meteohub,2013-09-17 08:52:00,
2013-09-17 04:57:00,50.5,48.6,30.32,WNW,284,0.0,1.0,93,0.00,,,0.00,meteohub,2013-09-17 08:57:00,
2013-09-17 05:02:00,50.2,48.2,30.33,WNW,284,0.0,1.0,93,0.00,,,0.00,meteohub,2013-09-17 09:02:00,
2013-09-17 05:07:00,50.0,48.0,30.33,WNW,284,0.0,1.0,93,0.00,,,0.00,meteohub,2013-09-17 09:07:00,
2013-09-17 05:12:00,49.8,48.2,30.33,West,277,0.0,0.0,94,0.00,,,0.00,meteohub,2013-09-17 09:12:00,
2013-09-17 05:17:00,49.8,48.2,30.33,WNW,283,0.0,0.0,94,0.00,,,0.00,meteohub,2013-09-17 09:17:00,
2013-09-17 05:22:00,49.6,47.7,30.33,NW,320,0.0,0.0,93,0.00,,,0.00,meteohub,2013-09-17 09:22:00,
2013-09-17 05:27:00,49.6,48.0,30.34,NW,310,0.0,2.0,94,0.00,,,0.00,meteohub,2013-09-17 09:27:00,
2013-09-17 05:32:00,49.5,47.5,30.34,West,277,0.0,2.0,93,0.00,,,0.00,meteohub,2013-09-17 09:32:00,
2013-09-17 05:37:00,49.3,47.3,30.34,NW,306,0.0,2.0,93,0.00,,,0.00,meteohub,2013-09-17 09:37:00,
2013-09-17 05:42:00,49.3,47.3,30.34,NNW,336,1.0,2.0,93,0.00,,,0.00,meteohub,2013-09-17 09:42:00,
2013-09-17 05:47:00,48.9,46.9,30.34,SSW,211,0.0,2.0,93,0.00,,,0.00,meteohub,2013-09-17 09:47:00,
2013-09-17 05:52:00,48.9,46.9,30.35,SSW,207,0.0,2.0,93,0.00,,,0.00,meteohub,2013-09-17 09:52:00,
2013-09-17 05:57:00,48.7,46.8,30.35,SSW,205,1.0,2.0,93,0.00,,,0.00,meteohub,2013-09-17 09:57:00,
2013-09-17 06:02:00,48.7,46.8,30.35,SSE,163,0.0,2.0,93,0.00,,,0.00,meteohub,2013-09-17 10:02:00,
2013-09-17 06:07:00,48.6,46.6,30.35,NW,315,0.0,2.0,93,0.00,,,0.00,meteohub,2013-09-17 10:07:00,
2013-09-17 06:12:00,48.6,46.6,30.35,NW,321,0.0,2.0,93,0.00,,,0.00,meteohub,2013-09-17 10:12:00,
2013-09-17 06:17:00,48.4,46.4,30.36,NW,316,1.0,2.0,93,0.00,,,0.00,meteohub,2013-09-17 10:17:00,
2013-09-17 06:22:00,48.4,46.4,30.36,WSW,258,1.0,2.0,93,0.00,,,0.00,meteohub,2013-09-17 10:22:00,
2013-09-17 06:27:00,48.6,46.4,30.36,NW,309,1.0,2.0,92,0.00,,,0.00,meteohub,2013-09-17 10:27:00,
2013-09-17 06:32:00,48.6,46.4,30.37,NNW,332,1.0,3.0,92,0.00,,,0.00,meteohub,2013-09-17 10:32:00,
2013-09-17 06:37:00,48.6,46.4,30.37,NNW,342,2.0,4.0,92,0.00,,,0.00,meteohub,2013-09-17 10:37:00,
2013-09-17 06:42:00,48.6,46.4,30.37,NW,320,0.0,4.0,92,0.00,,,0.00,meteohub,2013-09-17 10:42:00,
2013-09-17 06:47:00,48.6,46.6,30.38,NW,322,1.0,4.0,93,0.00,,,0.00,meteohub,2013-09-17 10:47:00,
2013-09-17 06:52:00,48.4,46.4,30.38,NW,321,0.0,3.0,93,0.00,,,0.00,meteohub,2013-09-17 10:52:00,
2013-09-17 06:57:00,48.0,46.0,30.38,NW,319,2.0,3.0,93,0.00,,,0.00,meteohub,2013-09-17 10:57:00,
2013-09-17 07:02:00,47.7,45.5,30.38,NW,323,0.0,3.0,92,0.00,,,0.00,meteohub,2013-09-17 11:02:00,
2013-09-17 07:07:00,47.5,45.3,30.39,WNW,293,0.0,4.0,92,0.00,,,0.00,meteohub,2013-09-17 11:07:00,
2013-09-17 07:12:00,47.1,44.6,30.39,NNW,334,2.0,4.0,91,0.00,,,0.00,meteohub,2013-09-17 11:12:00,
2013-09-17 07:17:00,47.1,44.6,30.39,NW,316,0.0,4.0,91,0.00,,,0.00,meteohub,2013-09-17 11:17:00,
2013-09-17 07:22:00,46.9,44.4,30.40,NNW,329,1.0,3.0,91,0.00,,,0.00,meteohub,2013-09-17 11:22:00,
2013-09-17 07:27:00,46.8,44.2,30.40,NW,307,0.0,4.0,91,0.00,,,0.00,meteohub,2013-09-17 11:27:00,
2013-09-17 07:32:00,46.8,44.2,30.40,NNW,344,1.0,4.0,91,0.00,,,0.00,meteohub,2013-09-17 11:32:00,
2013-09-17 07:37:00,46.8,44.2,30.40,ESE,103,0.0,4.0,91,0.00,,,0.00,meteohub,2013-09-17 11:37:00,
2013-09-17 07:42:00,46.6,44.1,30.40,NNW,331,0.0,3.0,91,0.00,,,0.00,meteohub,2013-09-17 11:42:00,
2013-09-17 07:47:00,46.6,44.4,30.40,NNW,336,2.0,4.0,92,0.00,,,0.00,meteohub,2013-09-17 11:47:00,
2013-09-17 07:52:00,46.6,44.6,30.40,West,279,1.0,4.0,93,0.00,,,0.00,meteohub,2013-09-17 11:52:00,
2013-09-17 07:57:00,46.6,45.0,30.40,NW,325,1.0,4.0,94,0.00,,,0.00,meteohub,2013-09-17 11:57:00,
2013-09-17 08:02:00,46.6,45.0,30.40,NNW,329,0.0,3.0,94,0.00,,,0.00,meteohub,2013-09-17 12:02:00,
2013-09-17 08:07:00,46.8,45.1,30.40,NNW,329,0.0,2.0,94,0.00,,,0.00,meteohub,2013-09-17 12:07:00,
2013-09-17 08:12:00,46.8,45.1,30.40,WNW,290,0.0,2.0,94,0.00,,,0.00,meteohub,2013-09-17 12:12:00,
2013-09-17 08:18:00,46.9,45.5,30.41,NNW,327,0.0,2.0,95,0.00,,,0.00,meteohub,2013-09-17 12:18:00,
2013-09-17 08:24:00,46.9,45.3,30.41,NNW,331,0.0,2.0,94,0.00,,,0.00,meteohub,2013-09-17 12:24:00,
2013-09-17 08:30:00,47.3,45.7,30.41,NNW,329,0.0,2.0,94,0.00,,,0.00,meteohub,2013-09-17 12:30:00,
2013-09-17 08:36:00,47.1,45.1,30.41,NNW,327,2.0,2.0,93,0.00,,,0.00,meteohub,2013-09-17 12:36:00,
2013-09-17 08:42:00,47.1,45.0,30.41,NNW,327,1.0,3.0,92,0.00,,,0.00,meteohub,2013-09-17 12:42:00,
2013-09-17 08:47:00,47.3,45.1,30.42,NNW,329,0.0,3.0,92,0.00,,,0.00,meteohub,2013-09-17 12:47:00,
2013-09-17 08:52:00,47.3,44.8,30.42,NNW,331,1.0,3.0,91,0.00,,,0.00,meteohub,2013-09-17 12:52:00,
2013-09-17 08:57:00,47.5,45.0,30.42,NNW,333,1.0,3.0,91,0.00,,,0.00,meteohub,2013-09-17 12:57:00,
2013-09-17 09:02:00,47.8,45.3,30.42,NNW,346,1.0,3.0,91,0.00,,,0.00,meteohub,2013-09-17 13:02:00,
2013-09-17 09:07:00,48.2,45.1,30.42,NNW,337,1.0,3.0,89,0.00,,,0.00,meteohub,2013-09-17 13:07:00,
2013-09-17 09:12:00,48.6,45.1,30.42,NW,315,0.0,3.0,88,0.00,,,0.00,meteohub,2013-09-17 13:12:00,
2013-09-17 09:17:00,48.9,45.5,30.42,NW,323,0.0,3.0,88,0.00,,,0.00,meteohub,2013-09-17 13:17:00,
2013-09-17 09:22:00,48.9,45.9,30.42,NNW,327,0.0,3.0,89,0.00,,,0.00,meteohub,2013-09-17 13:22:00,
2013-09-17 09:27:00,49.3,45.9,30.43,North,350,0.0,3.0,88,0.00,,,0.00,meteohub,2013-09-17 13:27:00,
2013-09-17 09:32:00,49.5,45.1,30.43,NNW,331,2.0,3.0,85,0.00,,,0.00,meteohub,2013-09-17 13:32:00,
2013-09-17 09:37:00,49.6,44.8,30.43,NNW,333,1.0,3.0,83,0.00,,,0.00,meteohub,2013-09-17 13:37:00,
2013-09-17 09:42:00,50.2,45.0,30.42,NW,323,0.0,3.0,82,0.00,,,0.00,meteohub,2013-09-17 13:42:00,
2013-09-17 09:48:00,51.1,45.9,30.43,NW,316,1.0,4.0,82,0.00,,,0.00,meteohub,2013-09-17 13:48:00,
2013-09-17 09:54:00,51.6,45.0,30.43,ENE,76,0.0,4.0,78,0.00,,,0.00,meteohub,2013-09-17 13:54:00,
2013-09-17 10:00:00,52.0,45.3,30.43,NW,326,0.0,3.0,78,0.00,,,0.00,meteohub,2013-09-17 14:00:00,
2013-09-17 10:07:00,52.0,45.0,30.43,NNW,335,1.0,3.0,77,0.00,,,0.00,meteohub,2013-09-17 14:07:00,
2013-09-17 10:12:00,52.0,44.2,30.43,NNW,329,1.0,3.0,75,0.00,,,0.00,meteohub,2013-09-17 14:12:00,
2013-09-17 10:17:00,52.0,43.9,30.42,NNW,331,0.0,3.0,74,0.00,,,0.00,meteohub,2013-09-17 14:17:00,
2013-09-17 10:22:00,52.2,44.1,30.42,NNW,331,1.0,3.0,74,0.00,,,0.00,meteohub,2013-09-17 14:22:00,
2013-09-17 10:27:00,52.5,44.1,30.43,NNW,338,1.0,3.0,73,0.00,,,0.00,meteohub,2013-09-17 14:27:00,
2013-09-17 10:32:00,52.9,44.1,30.43,NW,319,1.0,3.0,72,0.00,,,0.00,meteohub,2013-09-17 14:32:00,
2013-09-17 10:37:00,53.6,45.5,30.43,NW,319,0.0,3.0,74,0.00,,,0.00,meteohub,2013-09-17 14:37:00,
2013-09-17 10:43:00,54.3,45.9,30.43,WNW,288,1.0,3.0,73,0.00,,,0.00,meteohub,2013-09-17 14:43:00,
2013-09-17 10:49:00,55.0,45.5,30.43,NW,324,0.0,3.0,70,0.00,,,0.00,meteohub,2013-09-17 14:49:00,
2013-09-17 10:55:00,55.0,45.1,30.43,NW,315,1.0,4.0,69,0.00,,,0.00,meteohub,2013-09-17 14:55:00,
2013-09-17 11:01:00,55.2,44.8,30.43,NW,319,0.0,4.0,68,0.00,,,0.00,meteohub,2013-09-17 15:01:00,
2013-09-17 11:07:00,55.8,45.7,30.43,West,281,0.0,4.0,69,0.00,,,0.00,meteohub,2013-09-17 15:07:00,
2013-09-17 11:13:00,56.1,44.1,30.43,NW,315,1.0,3.0,64,0.00,,,0.00,meteohub,2013-09-17 15:13:00,
2013-09-17 11:19:00,56.5,45.3,30.43,WNW,284,0.0,3.0,66,0.00,,,0.00,meteohub,2013-09-17 15:19:00,
2013-09-17 11:25:00,56.8,45.1,30.42,NW,324,0.0,3.0,65,0.00,,,0.00,meteohub,2013-09-17 15:25:00,
2013-09-17 11:31:00,57.4,43.7,30.42,WNW,303,1.0,4.0,60,0.00,,,0.00,meteohub,2013-09-17 15:31:00,
2013-09-17 11:37:00,57.6,45.1,30.42,NNW,331,2.0,4.0,63,0.00,,,0.00,meteohub,2013-09-17 15:37:00,
2013-09-17 11:42:00,57.7,43.9,30.42,NNW,331,1.0,4.0,60,0.00,,,0.00,meteohub,2013-09-17 15:42:00,
2013-09-17 11:47:00,58.3,45.3,30.42,NNW,328,1.0,4.0,62,0.00,,,0.00,meteohub,2013-09-17 15:47:00,
2013-09-17 11:52:00,58.6,45.3,30.42,NW,325,2.0,3.0,61,0.00,,,0.00,meteohub,2013-09-17 15:52:00,
2013-09-17 11:57:00,58.6,44.8,30.42,NW,311,1.0,4.0,60,0.00,,,0.00,meteohub,2013-09-17 15:57:00,
2013-09-17 12:02:00,59.2,45.7,30.42,NNW,334,3.0,4.0,61,0.00,,,0.00,meteohub,2013-09-17 16:02:00,
2013-09-17 12:07:00,59.4,42.3,30.42,NNW,333,0.0,4.0,53,0.00,,,0.00,meteohub,2013-09-17 16:07:00,
2013-09-17 12:12:00,59.4,41.2,30.41,ENE,74,0.0,4.0,51,0.00,,,0.00,meteohub,2013-09-17 16:12:00,
2013-09-17 12:17:00,59.5,44.8,30.41,NNW,329,0.0,4.0,58,0.00,,,0.00,meteohub,2013-09-17 16:17:00,
2013-09-17 12:22:00,60.1,46.9,30.41,NW,309,0.0,4.0,62,0.00,,,0.00,meteohub,2013-09-17 16:22:00,
2013-09-17 12:27:00,60.6,44.8,30.41,WSW,256,0.0,3.0,56,0.00,,,0.00,meteohub,2013-09-17 16:27:00,
2013-09-17 12:32:00,61.2,43.3,30.41,WSW,258,0.0,3.0,52,0.00,,,0.00,meteohub,2013-09-17 16:32:00,
2013-09-17 12:37:00,61.2,42.4,30.40,South,182,0.0,3.0,50,0.00,,,0.00,meteohub,2013-09-17 16:37:00,
2013-09-17 12:42:00,61.3,46.4,30.40,NNW,329,1.0,3.0,58,0.00,,,0.00,meteohub,2013-09-17 16:42:00,
2013-09-17 12:47:00,61.3,46.4,30.40,NW,325,0.0,3.0,58,0.00,,,0.00,meteohub,2013-09-17 16:47:00,
2013-09-17 12:52:00,62.1,47.1,30.40,NW,316,0.0,3.0,58,0.00,,,0.00,meteohub,2013-09-17 16:52:00,
2013-09-17 12:57:00,63.0,48.4,30.40,ESE,113,2.0,3.0,59,0.00,,,0.00,meteohub,2013-09-17 16:57:00,
2013-09-17 13:02:00,64.0,45.5,30.40,SSW,209,2.0,2.0,51,0.00,,,0.00,meteohub,2013-09-17 17:02:00,
2013-09-17 13:07:00,64.2,45.1,30.40,WNW,296,1.0,3.0,50,0.00,,,0.00,meteohub,2013-09-17 17:07:00,
2013-09-17 13:14:00,64.2,46.2,30.39,NW,310,0.0,3.0,52,0.00,,,0.00,meteohub,2013-09-17 17:14:00,
2013-09-17 13:20:00,63.9,44.8,30.39,NW,309,0.0,5.0,50,0.00,,,0.00,meteohub,2013-09-17 17:20:00,
2013-09-17 13:26:00,64.0,46.6,30.39,NW,318,0.0,5.0,53,0.00,,,0.00,meteohub,2013-09-17 17:26:00,
2013-09-17 13:32:00,64.2,46.8,30.39,NNW,327,0.0,5.0,53,0.00,,,0.00,meteohub,2013-09-17 17:32:00,
2013-09-17 13:37:00,64.8,47.3,30.38,NNW,327,0.0,2.0,53,0.00,,,0.00,meteohub,2013-09-17 17:37:00,
2013-09-17 13:42:00,65.7,45.5,30.38,SE,130,2.0,2.0,48,0.00,,,0.00,meteohub,2013-09-17 17:42:00,
2013-09-17 13:47:00,66.0,45.1,30.38,South,172,1.0,3.0,47,0.00,,,0.00,meteohub,2013-09-17 17:47:00,
2013-09-17 13:52:00,66.6,43.3,30.38,ESE,118,0.0,3.0,43,0.00,,,0.00,meteohub,2013-09-17 17:52:00,
2013-09-17 13:57:00,66.2,44.8,30.38,SW,236,1.0,4.0,46,0.00,,,0.00,meteohub,2013-09-17 17:57:00,
2013-09-17 14:02:00,65.7,44.2,30.37,SW,224,0.0,4.0,46,0.00,,,0.00,meteohub,2013-09-17 18:02:00,
2013-09-17 14:07:00,65.8,46.2,30.37,NW,306,2.0,4.0,49,0.00,,,0.00,meteohub,2013-09-17 18:07:00,
2013-09-17 14:12:00,66.4,45.0,30.37,NW,323,0.0,4.0,46,0.00,,,0.00,meteohub,2013-09-17 18:12:00,
2013-09-17 14:17:00,67.3,45.1,30.37,SSE,148,1.0,4.0,45,0.00,,,0.00,meteohub,2013-09-17 18:17:00,
2013-09-17 14:24:00,68.0,45.9,30.37,SW,218,0.0,3.0,45,0.00,,,0.00,meteohub,2013-09-17 18:24:00,
2013-09-17 14:30:00,68.7,45.3,30.36,South,178,2.0,3.0,43,0.00,,,0.00,meteohub,2013-09-17 18:30:00,
2013-09-17 14:36:00,68.7,45.3,30.36,SE,142,0.0,4.0,43,0.00,,,0.00,meteohub,2013-09-17 18:36:00,
2013-09-17 14:42:00,68.7,42.1,30.36,SW,215,2.0,4.0,38,0.00,,,0.00,meteohub,2013-09-17 18:42:00,
2013-09-17 14:47:00,68.7,42.8,30.36,SSE,156,2.0,4.0,39,0.00,,,0.00,meteohub,2013-09-17 18:47:00,
2013-09-17 14:52:00,68.7,44.8,30.35,SSE,166,1.0,3.0,42,0.00,,,0.00,meteohub,2013-09-17 18:52:00,
2013-09-17 14:57:00,69.3,43.9,30.35,South,187,0.0,3.0,40,0.00,,,0.00,meteohub,2013-09-17 18:57:00,
2013-09-17 15:02:00,69.6,39.9,30.35,SE,128,1.0,3.0,34,0.00,,,0.00,meteohub,2013-09-17 19:02:00,
2013-09-17 15:07:00,69.3,43.9,30.35,SSE,150,1.0,2.0,40,0.00,,,0.00,meteohub,2013-09-17 19:07:00,
2013-09-17 15:12:00,69.1,40.3,30.35,SSW,198,1.0,4.0,35,0.00,,,0.00,meteohub,2013-09-17 19:12:00,
2013-09-17 15:17:00,69.3,43.9,30.34,SW,221,1.0,4.0,40,0.00,,,0.00,meteohub,2013-09-17 19:17:00,
2013-09-17 15:22:00,69.4,46.0,30.34,ESE,111,2.0,4.0,43,0.00,,,0.00,meteohub,2013-09-17 19:22:00,
2013-09-17 15:27:00,69.8,44.4,30.34,SE,137,0.0,4.0,40,0.00,,,0.00,meteohub,2013-09-17 19:27:00,
2013-09-17 15:32:00,70.0,41.7,30.34,SSE,156,1.0,4.0,36,0.00,,,0.00,meteohub,2013-09-17 19:32:00,
2013-09-17 15:37:00,70.3,44.2,30.34,SSE,150,1.0,2.0,39,0.00,,,0.00,meteohub,2013-09-17 19:37:00,
2013-09-17 15:42:00,70.5,42.3,30.33,SSE,155,0.0,3.0,36,0.00,,,0.00,meteohub,2013-09-17 19:42:00,
2013-09-17 15:47:00,70.0,41.7,30.33,South,190,1.0,3.0,36,0.00,,,0.00,meteohub,2013-09-17 19:47:00,
2013-09-17 15:52:00,69.8,42.4,30.33,ESE,121,2.0,4.0,37,0.00,,,0.00,meteohub,2013-09-17 19:52:00,
2013-09-17 15:57:00,69.6,40.8,30.32,South,172,1.0,4.0,35,0.00,,,0.00,meteohub,2013-09-17 19:57:00,
2013-09-17 16:03:00,70.0,43.2,30.32,South,184,0.0,4.0,38,0.00,,,0.00,meteohub,2013-09-17 20:03:00,
2013-09-17 16:09:00,70.5,43.0,30.32,SE,142,1.0,3.0,37,0.00,,,0.00,meteohub,2013-09-17 20:09:00,
2013-09-17 16:15:00,70.5,44.4,30.32,South,171,1.0,3.0,39,0.00,,,0.00,meteohub,2013-09-17 20:15:00,
2013-09-17 16:21:00,70.3,42.8,30.32,SW,217,1.0,3.0,37,0.00,,,0.00,meteohub,2013-09-17 20:21:00,
2013-09-17 16:27:00,70.0,42.4,30.32,SE,126,1.0,3.0,37,0.00,,,0.00,meteohub,2013-09-17 20:27:00,
2013-09-17 16:32:00,69.4,42.8,30.32,South,169,1.0,3.0,38,0.00,,,0.00,meteohub,2013-09-17 20:32:00,
2013-09-17 16:37:00,68.2,41.0,30.31,South,190,1.0,2.0,37,0.00,,,0.00,meteohub,2013-09-17 20:37:00,
2013-09-17 16:42:00,67.5,41.0,30.31,WSW,240,1.0,3.0,38,0.00,,,0.00,meteohub,2013-09-17 20:42:00,
2013-09-17 16:47:00,66.7,41.0,30.31,SSW,212,0.0,3.0,39,0.00,,,0.00,meteohub,2013-09-17 20:47:00,
2013-09-17 16:52:00,66.4,41.9,30.31,SSW,202,0.0,2.0,41,0.00,,,0.00,meteohub,2013-09-17 20:52:00,
2013-09-17 16:57:00,66.2,43.0,30.31,South,179,0.0,2.0,43,0.00,,,0.00,meteohub,2013-09-17 20:57:00,
2013-09-17 17:02:00,66.0,43.5,30.31,SSE,164,1.0,2.0,44,0.00,,,0.00,meteohub,2013-09-17 21:02:00,
2013-09-17 17:07:00,65.8,42.1,30.31,SSE,150,0.0,2.0,42,0.00,,,0.00,meteohub,2013-09-17 21:07:00,
2013-09-17 17:12:00,65.5,42.4,30.31,ENE,68,0.0,2.0,43,0.00,,,0.00,meteohub,2013-09-17 21:12:00,
2013-09-17 17:17:00,65.1,42.6,30.31,ESE,106,0.0,2.0,44,0.00,,,0.00,meteohub,2013-09-17 21:17:00,
2013-09-17 17:22:00,64.9,40.6,30.31,North,355,0.0,1.0,41,0.00,,,0.00,meteohub,2013-09-17 21:22:00,
2013-09-17 17:27:00,64.6,41.5,30.30,SSW,200,1.0,3.0,43,0.00,,,0.00,meteohub,2013-09-17 21:27:00,
2013-09-17 17:32:00,64.0,43.3,30.30,SSE,158,0.0,3.0,47,0.00,,,0.00,meteohub,2013-09-17 21:32:00,
2013-09-17 17:37:00,63.9,43.2,30.30,SSE,159,0.0,3.0,47,0.00,,,0.00,meteohub,2013-09-17 21:37:00,
2013-09-17 17:42:00,63.3,42.3,30.31,SSE,159,0.0,1.0,46,0.00,,,0.00,meteohub,2013-09-17 21:42:00,
2013-09-17 17:47:00,63.0,43.5,30.31,SE,140,1.0,1.0,49,0.00,,,0.00,meteohub,2013-09-17 21:47:00,
2013-09-17 17:52:00,62.8,42.3,30.31,SE,144,0.0,1.0,47,0.00,,,0.00,meteohub,2013-09-17 21:52:00,
2013-09-17 17:57:00,62.4,40.3,30.31,SE,126,0.0,1.0,44,0.00,,,0.00,meteohub,2013-09-17 21:57:00,
2013-09-17 18:02:00,62.2,41.7,30.31,SE,126,0.0,1.0,47,0.00,,,0.00,meteohub,2013-09-17 22:02:00,
2013-09-17 18:07:00,62.1,41.5,30.31,East,101,0.0,1.0,47,0.00,,,0.00,meteohub,2013-09-17 22:07:00,
2013-09-17 18:12:00,61.5,42.3,30.31,ESE,116,0.0,1.0,49,0.00,,,0.00,meteohub,2013-09-17 22:12:00,
2013-09-17 18:17:00,61.3,41.0,30.31,SE,136,0.0,1.0,47,0.00,,,0.00,meteohub,2013-09-17 22:17:00,
2013-09-17 18:22:00,61.2,40.8,30.31,SE,141,0.0,1.0,47,0.00,,,0.00,meteohub,2013-09-17 22:22:00,
2013-09-17 18:27:00,60.8,41.0,30.31,SSE,155,0.0,1.0,48,0.00,,,0.00,meteohub,2013-09-17 22:27:00,
2013-09-17 18:32:00,60.6,40.8,30.31,SSE,153,0.0,1.0,48,0.00,,,0.00,meteohub,2013-09-17 22:32:00,
2013-09-17 18:37:00,60.3,40.5,30.31,SSE,150,0.0,1.0,48,0.00,,,0.00,meteohub,2013-09-17 22:37:00,
2013-09-17 18:42:00,60.3,41.0,30.31,SSE,149,0.0,1.0,49,0.00,,,0.00,meteohub,2013-09-17 22:42:00,
2013-09-17 18:47:00,59.9,40.6,30.30,SSE,148,0.0,1.0,49,0.00,,,0.00,meteohub,2013-09-17 22:47:00,
2013-09-17 18:52:00,59.5,40.8,30.30,SE,138,0.0,1.0,50,0.00,,,0.00,meteohub,2013-09-17 22:52:00,
2013-09-17 18:57:00,59.4,41.2,30.30,SE,129,0.0,1.0,51,0.00,,,0.00,meteohub,2013-09-17 22:57:00,
2013-09-17 19:02:00,59.2,41.0,30.30,SE,129,0.0,1.0,51,0.00,,,0.00,meteohub,2013-09-17 23:02:00,
2013-09-17 19:07:00,58.8,40.8,30.30,SE,129,0.0,1.0,51,0.00,,,0.00,meteohub,2013-09-17 23:07:00,
2013-09-17 19:12:00,58.6,41.0,30.30,SE,136,0.0,1.0,52,0.00,,,0.00,meteohub,2013-09-17 23:12:00,
2013-09-17 19:17:00,58.3,40.8,30.30,SE,142,0.0,1.0,52,0.00,,,0.00,meteohub,2013-09-17 23:17:00,
2013-09-17 19:22:00,57.9,40.8,30.30,SE,142,0.0,1.0,53,0.00,,,0.00,meteohub,2013-09-17 23:22:00,
2013-09-17 19:27:00,57.7,41.2,30.30,ESE,123,0.0,1.0,54,0.00,,,0.00,meteohub,2013-09-17 23:27:00,
2013-09-17 19:32:00,57.6,41.5,30.30,SSE,149,0.0,1.0,55,0.00,,,0.00,meteohub,2013-09-17 23:32:00,
2013-09-17 19:37:00,57.2,41.2,30.30,SE,131,0.0,1.0,55,0.00,,,0.00,meteohub,2013-09-17 23:37:00,
2013-09-17 19:42:00,57.0,41.0,30.30,SE,141,0.0,2.0,55,0.00,,,0.00,meteohub,2013-09-17 23:42:00,
2013-09-17 19:47:00,57.0,41.5,30.30,SE,136,0.0,2.0,56,0.00,,,0.00,meteohub,2013-09-17 23:47:00,
2013-09-17 19:52:00,56.8,41.4,30.30,SE,136,0.0,1.0,56,0.00,,,0.00,meteohub,2013-09-17 23:52:00,
2013-09-17 19:59:00,56.5,41.4,30.30,ESE,106,1.0,1.0,57,0.00,,,0.00,meteohub,2013-09-17 23:59:00,
2013-09-17 20:05:00,56.5,41.4,30.31,SE,140,0.0,1.0,57,0.00,,,0.00,meteohub,2013-09-18 00:05:00,
2013-09-17 20:11:00,56.5,41.4,30.31,ESE,113,1.0,1.0,57,0.00,,,0.00,meteohub,2013-09-18 00:11:00,
2013-09-17 20:17:00,56.5,41.4,30.31,SSE,148,0.0,1.0,57,0.00,,,0.00,meteohub,2013-09-18 00:17:00,
2013-09-17 20:22:00,56.3,40.8,30.31,SE,127,0.0,1.0,56,0.00,,,0.00,meteohub,2013-09-18 00:22:00,
2013-09-17 20:27:00,56.1,40.6,30.31,SSE,158,0.0,1.0,56,0.00,,,0.00,meteohub,2013-09-18 00:27:00,
2013-09-17 20:32:00,56.1,41.2,30.31,SSE,152,0.0,1.0,57,0.00,,,0.00,meteohub,2013-09-18 00:32:00,
2013-09-17 20:37:00,55.9,41.0,30.31,SSE,157,0.0,1.0,57,0.00,,,0.00,meteohub,2013-09-18 00:37:00,
2013-09-17 20:42:00,55.8,41.2,30.31,SSE,158,0.0,1.0,58,0.00,,,0.00,meteohub,2013-09-18 00:42:00,
2013-09-17 20:47:00,55.6,41.0,30.31,SSE,150,0.0,1.0,58,0.00,,,0.00,meteohub,2013-09-18 00:47:00,
2013-09-17 20:52:00,55.0,41.0,30.31,SSE,150,0.0,1.0,59,0.00,,,0.00,meteohub,2013-09-18 00:52:00,
2013-09-17 20:57:00,54.9,40.8,30.32,West,265,0.0,1.0,59,0.00,,,0.00,meteohub,2013-09-18 00:57:00,
2013-09-17 21:02:00,54.7,40.6,30.32,West,280,0.0,1.0,59,0.00,,,0.00,meteohub,2013-09-18 01:02:00,
2013-09-17 21:08:00,54.5,40.8,30.32,West,280,0.0,0.0,60,0.00,,,0.00,meteohub,2013-09-18 01:08:00,
2013-09-17 21:14:00,54.3,40.8,30.32,West,280,0.0,0.0,60,0.00,,,0.00,meteohub,2013-09-18 01:14:00,
2013-09-17 21:20:00,54.1,41.4,30.32,WNW,282,0.0,0.0,62,0.00,,,0.00,meteohub,2013-09-18 01:20:00,
2013-09-17 21:27:00,53.8,41.0,30.32,WNW,282,0.0,0.0,62,0.00,,,0.00,meteohub,2013-09-18 01:27:00,
2013-09-17 21:32:00,53.4,41.2,30.32,WNW,282,0.0,0.0,63,0.00,,,0.00,meteohub,2013-09-18 01:32:00,
2013-09-17 21:37:00,53.2,41.0,30.32,WNW,294,0.0,0.0,63,0.00,,,0.00,meteohub,2013-09-18 01:37:00,
2013-09-17 21:42:00,53.1,41.2,30.32,WNW,294,0.0,0.0,64,0.00,,,0.00,meteohub,2013-09-18 01:42:00,
2013-09-17 21:47:00,52.9,42.3,30.32,NW,310,0.0,0.0,67,0.00,,,0.00,meteohub,2013-09-18 01:47:00,
2013-09-17 21:52:00,52.5,42.3,30.32,NW,310,0.0,0.0,68,0.00,,,0.00,meteohub,2013-09-18 01:52:00,
2013-09-17 21:57:00,52.5,41.5,30.32,NW,311,0.0,0.0,66,0.00,,,0.00,meteohub,2013-09-18 01:57:00,
2013-09-17 22:02:00,52.3,42.1,30.32,NW,310,0.0,0.0,68,0.00,,,0.00,meteohub,2013-09-18 02:02:00,
2013-09-17 22:07:00,52.3,41.7,30.32,SSE,150,0.0,0.0,67,0.00,,,0.00,meteohub,2013-09-18 02:07:00,
2013-09-17 22:12:00,52.3,41.0,30.32,SSE,150,0.0,0.0,65,0.00,,,0.00,meteohub,2013-09-18 02:12:00,
2013-09-17 22:17:00,52.3,41.7,30.32,SSE,148,0.0,1.0,67,0.00,,,0.00,meteohub,2013-09-18 02:17:00,
2013-09-17 22:22:00,52.3,42.1,30.32,SSE,148,0.0,1.0,68,0.00,,,0.00,meteohub,2013-09-18 02:22:00,
2013-09-17 22:27:00,52.2,39.9,30.32,SSE,148,0.0,1.0,63,0.00,,,0.00,meteohub,2013-09-18 02:27:00,
2013-09-17 22:32:00,52.3,40.5,30.32,SSE,148,0.0,1.0,64,0.00,,,0.00,meteohub,2013-09-18 02:32:00,
2013-09-17 22:37:00,52.5,39.9,30.33,East,82,0.0,1.0,62,0.00,,,0.00,meteohub,2013-09-18 02:37:00,
2013-09-17 22:42:00,53.1,38.3,30.33,SE,139,0.0,2.0,57,0.00,,,0.00,meteohub,2013-09-18 02:42:00,
2013-09-17 22:47:00,53.4,38.5,30.33,SE,139,0.0,2.0,57,0.00,,,0.00,meteohub,2013-09-18 02:47:00,
2013-09-17 22:52:00,53.8,37.6,30.33,SSE,155,0.0,2.0,54,0.00,,,0.00,meteohub,2013-09-18 02:52:00,
2013-09-17 22:57:00,54.0,37.2,30.32,SSE,155,0.0,1.0,53,0.00,,,0.00,meteohub,2013-09-18 02:57:00,
2013-09-17 23:03:00,54.1,37.9,30.33,SSE,155,0.0,1.0,54,0.00,,,0.00,meteohub,2013-09-18 03:03:00,
2013-09-17 23:09:00,54.0,38.1,30.33,SSE,155,0.0,1.0,55,0.00,,,0.00,meteohub,2013-09-18 03:09:00,
2013-09-17 23:15:00,53.6,42.1,30.33,SSE,155,0.0,1.0,65,0.00,,,0.00,meteohub,2013-09-18 03:15:00,
2013-09-17 23:21:00,53.1,42.8,30.33,SSE,156,0.0,1.0,68,0.00,,,0.00,meteohub,2013-09-18 03:21:00,
2013-09-17 23:27:00,52.2,43.0,30.32,SSE,156,0.0,1.0,71,0.00,,,0.00,meteohub,2013-09-18 03:27:00,
2013-09-17 23:32:00,51.4,41.9,30.32,SSE,156,0.0,1.0,70,0.00,,,0.00,meteohub,2013-09-18 03:32:00,
2013-09-17 23:37:00,50.7,42.1,30.32,SSE,156,0.0,1.0,72,0.00,,,0.00,meteohub,2013-09-18 03:37:00,
2013-09-17 23:42:00,50.2,42.6,30.32,South,188,0.0,1.0,75,0.00,,,0.00,meteohub,2013-09-18 03:42:00,
2013-09-17 23:47:00,49.5,42.3,30.32,SW,218,0.0,1.0,76,0.00,,,0.00,meteohub,2013-09-18 03:47:00,
2013-09-17 23:52:00,48.9,41.7,30.32,SW,214,0.0,1.0,76,0.00,,,0.00,meteohub,2013-09-18 03:52:00,
2013-09-17 23:57:00,48.6,42.3,30.32,WSW,250,0.0,1.0,79,0.00,,,0.00,meteohub,2013-09-18 03:57:00,